(515520) = 2014 EQ248

Discovered at Kitt Peak on 2014-03-11 by Spacewatch.

Orbit

Orbit type: Main Belt

Note: WebGL enabled browser required.

epoch2023-02-25.0
epoch JD2460000.5
perihelion date2022-07-20.56843
perihelion JD2459781.06843
argument of perihelion (°)213.65825
ascending node (°)338.80421
inclination (°)5.87291
eccentricity0.1256717
perihelion distance (AU)2.2361862
Tisserand w.r.t. Jupiter3.4
ΔV w.r.t. Earth (km/sec)9.5
semimajor axis (AU)2.5576048
mean anomaly (°)52.87529
mean daily motion (°/day)0.24096480
aphelion distance (AU)2.879
period (years)4.09
P-vector [x]-0.97538584
P-vector [y]-0.17294576
P-vector [z]-0.13679261
Q-vector [x]0.21737941
Q-vector [y]-0.85824867
Q-vector [z]-0.46492516
absolute magnitude17.66
phase slope0.15
uncertainty0
referenceMPO 745323
observations used128
oppositions12
arc length (days)8697
first opposition used1999
last opposition used2023
residual rms (arc-secs)0.86
perturbers coarse indicatorM-v
perturbers precise indicator003Ek
first observation date used1999-09-05.0
last observation date used2023-06-28.0
computer nameMPCLINUX
Minimum Orbit Intersection Distances (in AU)
for orbit epoch: 2460000.5, reference: E2023-MG0
Mercury1.81557
Venus1.52165
Earth1.23952
Mars0.60009
Jupiter2.09246
Saturn6.39453
Uranus16.1618
Neptune26.9912

Observations

131 total observations over interval: 1999 09 05.33674 – 2023 06 28.510856
These data are available for download (format description).

